CAPE
0 0 771 1668 1137 542 664 1223 1214 1467 1466 1504 1205 1141 1214 1153 1100 1141 1319 1456 1481 1358 933 755 647 494 503 539 508 553 603 844
0 0 278 1598 1600 808 583 1064 1301 1330 1363 1337 1128 1160 1092 1285 1268 1282 1317 1353 1335 1542 1227 1000 879 724 644 748 672 699 729 820
0 0 0 1220 1778 1292 923 1360 1699 1443 1374 1354 1239 1202 1271 1359 1447 1425 1295 1271 1446 1628 1477 1148 1048 870 936 793 823 816 936 913
0 0 0 0 147 1402 1507 1571 1956 2250 1917 1794 1633 1594 1585 1622 1788 1692 1646 1500 1541 1624 1650 1440 1249 1208 1096 1062 1100 975 958 831
0 0 0 0 0 0 16 560 1475 2027 2584 2249 2138 1970 1964 2019 2157 1972 1883 1812 1688 1723 1743 1597 1542 1414 1178 1199 1217 1035 1072 823
0 0 0 0 0 0 0 0 0 0 1037 2529 2239 2164 2010 2000 2271 2273 2228 2162 1952 1798 1806 1746 1584 1558 1457 1470 1233 1340 1244 1213
0 0 0 0 0 0 0 0 0 0 0 686 2011 1943 1895 1744 1804 2299 2386 2325 2246 2033 1862 1771 1705 1737 1601 1492 1560 1480 1432 1537
0 0 0 0 0 0 0 0 0 0 0 0 889 1803 2125 2113 1900 2098 2238 2262 2259 2069 1941 1799 1820 1792 1692 1706 1694 1610 1535 1536
0 0 0 0 0 0 0 0 0 0 0 2 0 1178 1847 2027 1991 2026 2348 2290 2323 2226 2079 1924 1859 1798 1818 1906 1839 1792 1644 1541
0 0 0 0 0 0 0 0 0 0 1 37 368 309 1254 1603 1740 1749 1925 2216 2188 2098 1996 1995 1971 1911 1969 2030 1913 1954 1713 1437
0 0 0 0 0 0 0 0 0 0 9 251 894 1202 1447 1770 1969 1994 2096 2236 2282 1984 1611 1822 2065 2048 2113 2003 1868 1097 850 262
0 0 0 0 0 0 0 0 0 0 0 0 164 817 1112 1543 1904 2118 2120 2414 2403 1940 1480 1322 1817 2007 1966 1675 691 288 155 7
0 0 0 0 0 0 0 0 0 8 129 109 33 5 444 1293 1809 2131 2216 2190 2313 1821 1767 1417 1361 1608 1297 770 332 5 1 0
0 0 0 0 0 0 0 0 0 0 0 174 612 696 400 500 1493 2172 2222 1961 2045 1753 1687 1537 1266 982 527 296 29 1 0 0
0 0 0 0 0 0 0 0 0 0 0 0 212 938 1227 1029 1153 1875 1850 1673 1249 1192 1083 950 705 322 61 0 0 0 0 0
0 0 0 0 0 0 0 0 0 0 0 0 0 15 275 835 1410 883 1001 1053 884 846 562 307 24 0 0 0 0 0 0 0
0 0 0 0 0 0 0 0 0 0 0 0 0 0 2 0 95 298 273 356 352 152 0 0 0 1 0 1 0 0 0 0
0 0 0 0 0 0 0 0 0 0 0 0 0 0 0 0 0 0 0 0 1 1 1 2 3 0 0 0 0 0 0 0
0 0 0 0 0 0 0 0 0 0 0 0 0 0 0 0 0 0 0 1 1 1 1 2 1 0 0 0 0 0 0 0
CIN
-0 -0 -67 -38 -51 -108 -121 -178 -198 -204 -175 -164 -180 -171 -156 -139 -133 -122 -102 -107 -78 -64 -69 -58 -65 -59 -44 -37 -23 -10 -2 -1
-0 -0 -72 -19 -13 -53 -94 -142 -185 -190 -197 -198 -188 -178 -166 -158 -156 -151 -153 -138 -123 -77 -65 -60 -61 -66 -54 -31 -20 -5 -8 -2
-0 -0 -0 -38 -2 -1 -29 -74 -118 -167 -177 -167 -149 -123 -129 -140 -158 -167 -186 -178 -151 -104 -95 -74 -67 -69 -45 -46 -43 -23 -14 -3
-0 -0 -0 -0 -108 -30 -3 -13 -25 -65 -104 -115 -97 -87 -75 -80 -129 -152 -163 -178 -165 -142 -112 -104 -86 -70 -56 -43 -26 -26 -38 -38
-0 -0 -0 -0 -0 -0 -30 -105 -44 -28 -53 -61 -64 -68 -75 -91 -107 -116 -136 -181 -179 -156 -132 -137 -90 -102 -76 -74 -51 -48 -29 -47
-0 -0 -0 -0 -0 -0 -0 -0 -0 -0 -77 -60 -90 -82 -69 -66 -63 -61 -87 -114 -166 -161 -149 -130 -118 -93 -91 -39 -65 -41 -39 -8
-0 -0 -0 -0 -0 -0 -0 -0 -0 -0 -0 -121 -101 -123 -129 -97 -72 -41 -61 -85 -121 -152 -148 -132 -126 -93 -96 -81 -53 -59 -36 -3
-0 -0 -0 -0 -0 -0 -0 -0 -0 -0 -0 -0 -133 -129 -91 -116 -105 -74 -93 -100 -110 -183 -167 -158 -150 -138 -108 -87 -66 -61 -51 -15
-0 -0 -0 -0 -0 -0 -0 -0 -0 -0 -0 -248 -26 -114 -121 -116 -124 -98 -59 -99 -123 -149 -165 -150 -143 -135 -115 -81 -65 -55 -47 -10
-0 -0 -0 -0 -0 -0 -0 -0 -0 -0 -30 -198 -155 -179 -139 -130 -124 -124 -86 -76 -95 -137 -171 -144 -136 -116 -83 -62 -51 -41 -33 -29
-0 -0 -0 -0 -0 -0 -0 -0 -0 -0 -166 -130 -83 -79 -76 -74 -47 -65 -83 -75 -92 -137 -244 -155 -103 -80 -64 -56 -49 -146 -157 -304
-0 -0 -0 -0 -0 -0 -0 -0 -0 -0 -0 -0 -211 -79 -73 -62 -47 -42 -68 -50 -75 -167 -243 -232 -123 -84 -57 -65 -226 -336 -408 -307
-0 -0 -0 -0 -0 -0 -0 -0 -0 -211 -118 -148 -212 -265 -136 -65 -48 -45 -70 -62 -74 -161 -146 -203 -165 -91 -141 -229 -302 -535 -0 -0
-0 -0 -0 -0 -0 -0 -0 -0 -0 -0 -0 -100 -66 -97 -142 -133 -61 -27 -45 -96 -86 -132 -128 -140 -148 -188 -285 -347 -422 -0 -0 -0
-0 -0 -0 -0 -0 -0 -0 -0 -0 -0 -0 -0 -85 -35 -30 -67 -69 -33 -60 -99 -165 -160 -176 -190 -217 -318 -394 -0 -0 -0 -0 -0
-0 -0 -0 -0 -0 -0 -0 -0 -0 -0 -0 -0 -0 -205 -142 -82 -36 -119 -110 -115 -142 -143 -215 -299 -167 -0 -0 -0 -0 -0 -0 -0
-0 -0 -0 -0 -0 -0 -0 -0 -0 -0 -0 -0 -0 -0 -0 -0 -165 -133 -155 -164 -172 -264 -0 -0 -0 -0 -0 -0 -0 -0 -0 -0
-0 -0 -0 -0 -0 -0 -0 -0 -0 -0 -0 -0 -0 -0 -0 -0 -0 -0 -0 -0 -0 -0 -0 -0 -0 -0 -0 -0 -0 -0 -0 -0
-0 -0 -0 -0 -0 -0 -0 -0 -0 -0 -0 -0 -0 -0 -0 -0 -0 -0 -0 -0 -0 -0 -0 -0 -0 -0 -0 -0 -0 -0 -0 -0
Wind_Speed
29 27 25 23 23 22 20 19 16 14 13 12 10 9 8 8 7 7 7 8 9 9 7 7 6 6 6 6 6 6 9 10
31 24 26 25 25 24 22 21 18 16 16 14 14 13 11 11 10 9 9 8 9 9 9 9 9 8 8 8 8 9 10 12
31 26 24 25 26 25 23 22 20 20 18 17 17 16 16 15 14 12 11 11 11 11 11 10 10 10 10 10 9 10 11 10
31 33 23 24 28 28 27 24 23 22 22 21 22 23 22 18 16 16 15 14 13 13 13 13 12 12 13 12 12 11 11 12
35 32 34 28 25 25 29 30 28 26 25 28 26 25 25 23 22 22 20 18 18 17 16 16 15 13 14 13 12 13 12 11
36 33 35 33 30 29 28 29 30 30 27 28 29 31 30 26 25 25 24 22 21 20 20 18 18 16 15 13 12 12 13 12
37 36 36 35 37 38 32 30 32 30 30 29 30 30 30 30 30 27 26 25 23 22 21 21 19 18 16 15 13 13 13 12
32 36 38 37 36 36 36 35 33 32 32 32 31 32 33 33 32 30 28 26 25 22 21 22 21 20 17 15 15 13 13 13
32 32 32 33 33 34 35 36 37 37 35 34 34 34 33 33 31 30 28 27 26 23 22 23 22 21 20 18 16 15 13 13
25 29 31 32 34 33 32 34 35 35 34 33 33 32 32 32 31 30 30 26 26 25 23 23 23 22 21 19 17 16 14 13
26 27 28 29 30 30 31 32 33 32 33 33 32 32 31 30 31 28 26 26 23 24 23 21 21 22 21 20 18 16 15 14
24 25 26 26 28 29 30 31 32 32 31 33 32 30 31 30 29 28 28 26 24 24 21 22 23 22 20 20 18 17 17 16
27 26 26 26 26 26 27 29 30 31 32 32 32 33 33 33 30 28 26 28 26 25 25 22 24 22 21 21 20 19 18 17
29 27 27 28 29 28 28 28 29 30 31 33 33 34 34 35 34 32 30 29 27 25 24 23 23 23 22 22 21 20 18 16
32 31 31 30 30 31 31 30 30 30 31 32 33 34 35 35 35 34 31 29 28 27 27 26 26 24 23 22 21 19 17 15
34 36 36 34 33 32 31 32 32 31 32 32 33 33 35 34 32 31 30 29 29 29 29 29 27 26 26 24 22 20 18 16
35 34 34 36 35 34 33 33 33 33 34 34 34 33 34 35 35 33 30 29 29 30 29 28 27 27 25 24 21 19 16 15
39 38 37 37 35 35 36 36 36 36 35 34 34 35 35 34 34 33 32 30 28 28 27 26 26 25 22 21 19 17 16 15
41 39 37 35 37 38 39 39 38 39 38 36 35 35 35 34 34 33 32 30 29 27 26 25 25 24 20 19 17 16 14 13
Wind_Direction
256 257 253 240 233 227 222 219 218 219 234 239 241 238 228 231 237 243 238 228 219 224 241 254 249 251 263 266 278 289 303 308
255 255 256 248 238 229 226 223 223 227 230 233 243 243 245 247 245 243 232 234 229 231 243 249 253 253 261 268 281 288 298 305
256 252 253 252 244 237 229 229 229 232 240 244 251 254 257 258 258 252 240 240 241 234 238 250 248 257 259 262 265 281 291 294
257 255 248 251 250 248 246 242 241 240 246 252 258 263 264 259 254 257 253 250 245 242 244 250 252 254 262 262 267 269 282 286
260 257 254 253 250 248 250 252 250 250 247 255 254 258 258 260 264 265 262 253 253 252 251 246 254 253 257 254 259 264 272 275
259 262 260 260 256 253 255 255 255 255 253 251 257 260 265 267 266 266 263 262 256 256 253 250 248 253 252 257 250 253 257 270
259 261 264 263 262 260 258 255 256 256 256 255 254 260 262 266 267 266 267 266 262 258 252 247 246 247 247 246 252 246 252 255
262 264 264 264 263 263 262 262 261 260 259 260 259 260 265 264 268 266 266 266 263 257 249 245 242 239 242 245 247 246 247 255
268 271 265 267 267 267 266 265 265 264 263 263 264 263 265 266 266 266 264 264 263 262 254 248 244 240 241 243 244 246 250 253
273 273 273 274 273 271 271 270 270 269 268 266 266 266 266 269 267 267 265 263 267 261 260 249 242 240 240 243 245 244 253 258
279 278 280 277 278 278 277 275 274 273 271 270 268 269 269 270 271 268 265 264 261 262 257 250 243 242 239 238 246 251 253 262
282 286 287 287 285 283 281 279 277 275 274 273 272 270 270 271 272 270 268 267 262 258 257 252 247 245 240 239 247 249 253 260
285 287 286 289 292 292 288 284 282 279 277 275 274 273 274 273 270 269 268 268 265 257 259 252 249 245 241 242 248 252 252 255
287 289 288 288 288 290 291 290 288 285 282 278 277 275 274 273 272 270 267 266 264 260 259 254 255 247 244 244 248 250 250 252
286 286 286 288 288 288 287 288 289 289 287 284 281 279 278 276 275 273 269 265 261 260 259 259 259 254 250 249 253 252 252 255
283 284 286 288 288 288 288 287 287 289 288 286 283 283 281 280 279 276 272 265 262 260 260 260 258 254 252 249 249 247 249 251
285 285 286 285 286 285 286 287 288 288 286 287 286 285 284 282 279 277 275 270 265 263 261 256 255 256 250 242 238 241 241 243
283 284 285 285 286 286 285 285 286 286 287 287 287 285 284 284 282 279 275 272 268 264 260 255 254 255 241 231 228 232 233 243
282 282 284 286 285 286 285 283 283 283 283 285 287 287 285 285 282 280 276 275 270 266 261 257 255 253 232 223 223 230 239 243